OBJECT G

Satellite information

Favourite Embed

Satellite Type and Status

UNKNOWNIN ORBIT

Key statistics

Satellite OBJECT G at a glance.

Uptime

1303

Days in orbit

Revolutions

≈ 15.5

Per day

Orbit

SSO

Sun Synchronous Orbit

Inclination

97.4

Latest

Satellite identification and parameters

Extended collection of information and parameters for OBJECT G.

Object identification

Identified? True

Debris? False

Object name: OBJECT G

International designator: 2021-091G

Object number (NORAD): 49321

Object ID (CCSDS): 49321

Country: PEOPLES REPUBLIC OF CHINA (PRC)

Current information (Y/N): Y

RCS size: MEDIUM

Orbital parameters

Period: 93.092 minutes

Inclination: 97.4225 deg

SMA: 6804.068 km

Apoapsis: 431.324 km

Periapsis: 420.542 km

RAAN: 332.7188 deg

Eccentricy: 0.0007923

Argument of periapsis: 7.5511 deg

Mean anomaly: 352.5857 deg

Mean motion: 15.46855776 rev/day

Mean motion (dot): 0.00018269 rev/day2

B* drag term: 0.00036476 1/REarth

Two-line elements (TLE)

Creation date: May 9, 2025, 2:46 a.m.

Reference frame: TEME

Reference center: EARTH

Epoch: May 8, 2025, 10:18 p.m. UTC

TLE line 0: 0 OBJECT G

TLE line 1: 1 49321U 21091G 25128.92975179 .00018269 00000-0 36476-3 0 9994

TLE line 2: 2 49321 97.4225 332.7188 0007923 7.5511 352.5857 15.46855776198683

Live tracking on map

Real-time ground track for satellite OBJECT G.

In-orbit conjunctions

There are no conjunctions computed for OBJECT G, at the moment. Check back to stay up to date, as we update our databases every day.

Go to all conjunctions

Associated space launch

Xihe, also known as the Chinese Hα Solar Explorer (CHASE), is designed to test a newly developed satellite platform and conduct solar observations. The scientific payload of the satellite is an Hα imaging spectrograph (HIS), which can, for the first time, acquire full-disk spectroscopic solar observations in the Hα waveband. It will complement the observations by on-orbit solar spacecraft (such as SDO, IRIS, STEREO and PSP), as well as future solar missions of the Solar Orbiter and the Chinese Advanced Space-based Solar Observatory (ASO-S). Mission is named Xihe after a solar deity from Chinese mythology.

OBJECT G was lifted into orbit during the mission ‘Long March 2D | Xihe (CHASE)’, on board a Long March 2D space rocket.

The launch took place on Oct. 14, 2021, 10:51 a.m. from Launch Complex 9.

For more information about the launch, click the button.

Launch to space Long March 2D | Xihe (CHASE)
Long March 2D | Xihe (CHASE)

Agency: N/A

Status: Launch Successful

Launch date: Oct. 14, 2021, 10:51 a.m. UTC

Rocket: Long March 2D

Launch pad: Launch Complex 9

Location: Taiyuan Satellite Launch Center, People's Republic of China

...

Latest news about this satellite

News about space launch
China launches hydrogen-alpha solar telescope aboard Long March 2D

China has launched a small experimental solar observatory as part of a multi-satellite launch aboard a Long March 2D rocket Thursday. The launch took place from the Taiyuan Satellite Launch Center at 10:51 UTC (18:51 Bejing time).

News about space launch
China launches orbiting solar observatory

China successfully launched a half-ton scientific research satellite Oct. 14 to study the violent and sudden physical processes behind solar flares, joining 10 other small payloads on a Long March 2D rocket that also tested grid fins to help guide the exp...

News about space launch
China launches first solar observatory, tests grid fins

China carried out its 37th orbital launch of the year Thursday, successfully sending the Chinese H-alpha Solar Explorer and 10 other satellites into orbit.


Newsletter sign-up

Weekly statistics, charts and insights to help you stay on top of the space industry.